Weather History for Bentonville, AR

Change the Weather History Date:

Saturday, May 4, 2013

  Actual Average Record
Temperature  
Mean Temperature 40 °F -  
Max Temperature 44 °F 71 °F 89 °F (1952)
Min Temperature 35 °F 47 °F 27 °F (1954)
Degree Days  
Heating Degree Days 26    
Moisture  
Dew Point 34 °F    
Average Humidity 80    
Maximum Humidity 93    
Minimum Humidity 66    
Precipitation  
Precipitation 0.20 in - - ()
Sea Level Pressure  
Sea Level Pressure 29.89 in    
Wind  
Wind Speed 8 mph (NW)    
Max Wind Speed 13 mph    
Max Gust Speed 16 mph    
Visibility 9 miles    
Events      
Averages and records for this station are not official NWS values.
T = Trace of Precipitation, MM = Missing Value Source: NWS Daily Summary

Daily Weather History Graph

Daily Weather History Graph

Search for Another Location

Airport:

Trip Planner

Search our weather history database for the weather conditions in past years. The results will help you decide how hot, cold, wet, or windy it might be!

Date:

Astronomy

May. 04, 2013 Rise Set
Actual Time 6:20 AM CDT 8:07 PM CDT
Civil Twilight 5:52 AM CDT 8:35 PM CDT
Nautical Twilight 5:18 AM CDT 9:09 PM CDT
Astronomical Twilight 4:42 AM CDT 9:45 PM CDT
Moon 3:09 AM CDT (5/4) 3:14 PM CDT (5/4)
Length of Visible Light 14h 43m
Length of Day
13h 47m
Waning Crescent, 27% of the Moon is Illuminated
May 4
Waning Crescent
May 9
New
May 17
First Quarter
May 24
Full
May 31
Last Quarter

Hourly Weather History & Observations

Time (CDT) Temp. Windchill Dew Point Humidity Pressure Visibility Wind Dir Wind Speed Gust Speed Precip Events Conditions
12:15 AM 37.4 °F 30.8 °F 30.2 °F 75% 29.92 in 10.0 mi WNW 9.2 mph - N/A   Overcast
12:35 AM 37.4 °F 30.8 °F 30.2 °F 75% 29.91 in 10.0 mi NW 9.2 mph - N/A   Overcast
12:55 AM 37.4 °F 31.4 °F 32.0 °F 81% 29.90 in 9.0 mi NW 8.1 mph - N/A   Overcast
1:15 AM 35.6 °F 29.9 °F 30.2 °F 81% 29.90 in 7.0 mi NW 6.9 mph - 0.02 in   Overcast
1:35 AM 35.6 °F 29.2 °F 32.0 °F 87% 29.90 in 6.0 mi WNW 8.1 mph - 0.03 in   Overcast
1:55 AM 35.6 °F 29.9 °F 32.0 °F 87% 29.89 in 5.0 mi WNW 6.9 mph - 0.04 in   Overcast
2:15 AM 35.6 °F 30.7 °F 30.2 °F 81% 29.88 in 5.0 mi West 5.8 mph - 0.01 in   Overcast
2:35 AM 35.6 °F 31.7 °F 30.2 °F 81% 29.87 in 9.0 mi West 4.6 mph - 0.02 in   Overcast
2:55 AM 35.6 °F 29.9 °F 32.0 °F 87% 29.87 in 8.0 mi West 6.9 mph - 0.03 in   Overcast
3:15 AM 35.6 °F 28.0 °F 33.8 °F 93% 29.86 in 6.0 mi West 10.4 mph - N/A   Overcast
3:35 AM 37.4 °F 29.8 °F 33.8 °F 87% 29.86 in 5.0 mi WNW 11.5 mph - 0.01 in   Overcast
3:55 AM 37.4 °F 29.8 °F 33.8 °F 87% 29.85 in 9.0 mi WNW 11.5 mph 16.1 mph 0.01 in   Overcast
4:15 AM 37.4 °F 29.8 °F 33.8 °F 87% 29.85 in 10.0 mi WNW 11.5 mph 16.1 mph 0.01 in   Overcast
4:35 AM 37.4 °F 29.3 °F 33.8 °F 87% 29.85 in 10.0 mi WNW 12.7 mph 16.1 mph 0.01 in   Overcast
4:55 AM 35.6 °F 27.5 °F 32.0 °F 87% 29.85 in 10.0 mi WNW 11.5 mph - 0.02 in   Overcast
5:15 AM 35.6 °F 29.9 °F 32.0 °F 87% 29.85 in 10.0 mi West 6.9 mph - N/A   Overcast
5:35 AM 35.6 °F 30.7 °F 32.0 °F 87% 29.84 in 5.0 mi West 5.8 mph - N/A   Overcast
5:55 AM 35.6 °F 29.9 °F 33.8 °F 93% 29.84 in 4.0 mi West 6.9 mph - 0.01 in   Overcast
6:15 AM 35.6 °F 29.2 °F 32.0 °F 87% 29.84 in 5.0 mi West 8.1 mph - 0.01 in   Overcast
6:35 AM 35.6 °F 31.7 °F 32.0 °F 87% 29.83 in 7.0 mi WSW 4.6 mph - 0.01 in   Overcast
6:55 AM 35.6 °F 31.7 °F 32.0 °F 87% 29.83 in 5.0 mi WSW 4.6 mph - 0.02 in   Overcast
7:15 AM 35.6 °F 29.9 °F 32.0 °F 87% 29.83 in 7.0 mi WSW 6.9 mph - 0.01 in   Overcast
7:35 AM 35.6 °F 30.7 °F 32.0 °F 87% 29.84 in 5.0 mi WSW 5.8 mph - 0.01 in   Overcast
7:55 AM 35.6 °F 31.7 °F 32.0 °F 87% 29.83 in 5.0 mi WSW 4.6 mph - 0.03 in   Overcast
8:15 AM 35.6 °F 30.7 °F 32.0 °F 87% 29.83 in 7.0 mi West 5.8 mph - N/A   Overcast
8:35 AM 35.6 °F 30.7 °F 33.8 °F 93% 29.83 in 8.0 mi West 5.8 mph - 0.02 in   Overcast
8:55 AM 35.6 °F 29.9 °F 33.8 °F 93% 29.83 in 10.0 mi West 6.9 mph - 0.02 in   Overcast
9:15 AM 37.4 °F 32.1 °F 33.8 °F 87% 29.83 in 10.0 mi NW 6.9 mph - N/A   Overcast
9:35 AM 37.4 °F 30.8 °F 33.8 °F 87% 29.83 in 10.0 mi North 9.2 mph - N/A   Overcast
9:55 AM 39.2 °F 33.6 °F 33.8 °F 81% 29.83 in 10.0 mi North 8.1 mph - N/A   Overcast
10:15 AM 39.2 °F 34.2 °F 33.8 °F 81% 29.84 in 10.0 mi North 6.9 mph - N/A   Overcast
10:35 AM 39.2 °F 33.6 °F 33.8 °F 81% 29.84 in 10.0 mi North 8.1 mph - N/A   Overcast
10:55 AM 39.2 °F 34.2 °F 33.8 °F 81% 29.85 in 7.0 mi NW 6.9 mph - N/A   Overcast
11:15 AM 37.4 °F 33.8 °F 33.8 °F 87% 29.85 in 5.0 mi WNW 4.6 mph - 0.01 in   Overcast
11:35 AM 39.2 °F 34.2 °F 33.8 °F 81% 29.86 in 10.0 mi North 6.9 mph - 0.01 in   Overcast
11:55 AM 37.4 °F 32.1 °F 33.8 °F 87% 29.86 in 5.0 mi NNW 6.9 mph - 0.01 in   Overcast
12:15 PM 39.2 °F 34.2 °F 33.8 °F 81% 29.87 in 10.0 mi NW 6.9 mph - N/A   Overcast
12:35 PM 39.2 °F 33.6 °F 33.8 °F 81% 29.87 in 10.0 mi North 8.1 mph - N/A   Overcast
12:55 PM 39.2 °F 34.2 °F 35.6 °F 87% 29.87 in 10.0 mi North 6.9 mph - N/A   Overcast
1:15 PM 39.2 °F 35.0 °F 33.8 °F 81% 29.87 in 10.0 mi North 5.8 mph - N/A   Overcast
1:55 PM 41.0 °F 37.1 °F 35.6 °F 81% 29.88 in 10.0 mi NW 5.8 mph - 0.01 in   Mostly Cloudy
2:15 PM 41.0 °F 37.1 °F 33.8 °F 76% 29.88 in 10.0 mi NW 5.8 mph - N/A   Overcast
2:35 PM 41.0 °F 36.4 °F 33.8 °F 76% 29.89 in 10.0 mi WNW 6.9 mph - N/A   Overcast
2:55 PM 42.8 °F 38.6 °F 35.6 °F 76% 29.89 in 10.0 mi North 6.9 mph - N/A   Mostly Cloudy
3:15 PM 42.8 °F 37.0 °F 35.6 °F 76% 29.89 in 10.0 mi North 10.4 mph - N/A   Overcast
3:35 PM 42.8 °F 37.5 °F 35.6 °F 76% 29.89 in 10.0 mi North 9.2 mph - N/A   Overcast
3:55 PM 42.8 °F 37.0 °F 35.6 °F 76% 29.89 in 10.0 mi North 10.4 mph - N/A   Overcast
4:15 PM 44.6 °F 39.2 °F 33.8 °F 66% 29.89 in 10.0 mi North 10.4 mph - N/A   Overcast
4:35 PM 41.0 °F 36.4 °F 35.6 °F 81% 29.90 in 9.0 mi NW 6.9 mph - N/A   Overcast
4:55 PM 44.6 °F 39.7 °F 35.6 °F 71% 29.90 in 10.0 mi NNW 9.2 mph - N/A   Overcast
5:15 PM 44.6 °F 38.8 °F 35.6 °F 71% 29.91 in 10.0 mi North 11.5 mph - N/A   Overcast
5:35 PM 44.6 °F 39.2 °F 35.6 °F 71% 29.91 in 10.0 mi NNE 10.4 mph - N/A   Overcast
5:55 PM 44.6 °F 38.8 °F 33.8 °F 66% 29.92 in 10.0 mi NNE 11.5 mph - N/A   Overcast
6:15 PM 44.6 °F 39.7 °F 35.6 °F 71% 29.92 in 10.0 mi North 9.2 mph - N/A   Mostly Cloudy
6:35 PM 44.6 °F 39.7 °F 35.6 °F 71% 29.92 in 10.0 mi NNE 9.2 mph - N/A   Overcast
6:55 PM 44.6 °F 39.2 °F 35.6 °F 71% 29.93 in 10.0 mi North 10.4 mph - N/A   Overcast
7:15 PM 44.6 °F 39.2 °F 33.8 °F 66% 29.93 in 10.0 mi North 10.4 mph - N/A   Overcast
7:35 PM 42.8 °F 38.6 °F 33.8 °F 70% 29.93 in 10.0 mi North 6.9 mph - N/A   Overcast
7:55 PM 42.8 °F 38.6 °F 33.8 °F 70% 29.94 in 10.0 mi North 6.9 mph - N/A   Overcast
8:15 PM 42.8 °F 39.3 °F 33.8 °F 70% 29.94 in 10.0 mi North 5.8 mph - N/A   Mostly Cloudy
8:35 PM 42.8 °F 40.1 °F 33.8 °F 70% 29.95 in 10.0 mi North 4.6 mph - N/A   Overcast
8:55 PM 42.8 °F 41.1 °F 33.8 °F 70% 29.95 in 10.0 mi NNW 3.5 mph - N/A   Mostly Cloudy
9:15 PM 42.8 °F 40.1 °F 33.8 °F 70% 29.96 in 10.0 mi North 4.6 mph - N/A   Overcast
9:35 PM 42.8 °F 40.1 °F 33.8 °F 70% 29.96 in 10.0 mi North 4.6 mph - N/A   Scattered Clouds
9:55 PM 41.0 °F 38.0 °F 33.8 °F 76% 29.97 in 10.0 mi NNW 4.6 mph - N/A   Scattered Clouds
10:15 PM 41.0 °F 39.0 °F 33.8 °F 76% 29.98 in 10.0 mi NNW 3.5 mph - N/A   Mostly Cloudy
10:35 PM 41.0 °F 39.0 °F 33.8 °F 76% 29.98 in 10.0 mi North 3.5 mph - N/A   Mostly Cloudy
10:55 PM 39.2 °F 35.9 °F 33.8 °F 81% 29.99 in 10.0 mi North 4.6 mph - N/A   Scattered Clouds
11:15 PM 39.2 °F 35.9 °F 33.8 °F 81% 29.99 in 10.0 mi North 4.6 mph - N/A   Partly Cloudy
11:35 PM 39.2 °F 35.9 °F 33.8 °F 81% 29.99 in 10.0 mi North 4.6 mph - N/A   Mostly Cloudy
11:55 PM 39.2 °F 35.0 °F 35.6 °F 87% 29.98 in 10.0 mi North 5.8 mph - N/A   Partly Cloudy